This demonstration page uses our WeatherBlox Daily Observations layout. Learn more.

Left ArrowRight Arrow

39.51506, -84.39828

Hourly Observations for March 26, 2021

Temp ( °F °C ) Dew Point ( °F °C ) Humidity (%) Winds ( mph kmh ) Pressure ( in mb ) Visibility ( mi km ) Precip ( " mm )
12:15 am 00:15 Cloudy 65 18.3 62 16.4 89 89 S 17 28 29.47 998 10 16 N/A
12:35 am 00:35 Cloudy with Light Rain 64 17.9 62 16.8 93 93 S 25 41 29.47 998 7 11 0.07 1.78
12:55 am 00:55 Cloudy with Light Rain 62 16.8 60 15.4 92 92 SW 21 33 29.53 1000 10 16 0.11 2.79
1:15 am 01:15 Partly Cloudy 62 16.7 60 15.5 93 93 SSW 21 33 29.54 1000 10 16 N/A
1:35 am 01:35 Clear 62 16.5 59 14.8 90 90 SSW 21 33 29.54 1000 10 16 N/A
1:55 am 01:55 Clear 61 16.3 59 14.8 91 91 SSW 17 28 29.54 1000 10 16 N/A
2:15 am 02:15 Partly Cloudy 61 16.2 58 14.6 90 90 SSW 20 31 29.54 1000 10 16 N/A
2:35 am 02:35 Cloudy 61 16.2 57 13.8 86 86 SW 23 37 29.55 1001 10 16 N/A
2:55 am 02:55 Partly Cloudy 61 16 52 11 72 72 SW 32 52 29.57 1001 10 16 N/A
3:15 am 03:15 Clear 59 14.9 48 9 68 68 SW 35 56 29.60 1002 10 16 N/A
3:35 am 03:35 Partly Cloudy 58 14.3 48 8.9 70 70 WSW 32 52 29.62 1003 10 16 N/A
3:55 am 03:55 Clear 57 13.7 48 8.8 72 72 WSW 30 48 29.63 1003 10 16 N/A
4:15 am 04:15 Clear 56 13.5 48 8.7 73 73 WSW 32 52 29.65 1004 10 16 N/A
4:35 am 04:35 Mostly Cloudy 56 13.6 47 8.6 72 72 W 36 57 29.68 1005 10 16 N/A
4:55 am 04:55 Mostly Cloudy 55 13 47 8.5 74 74 W 28 44 29.71 1006 10 16 N/A
5:15 am 05:15 Partly Cloudy 53 11.7 46 7.5 76 76 W 30 48 29.74 1007 10 16 N/A
5:35 am 05:35 Mostly Cloudy 52 11.2 45 7.4 78 78 W 22 35 29.77 1008 10 16 N/A
5:55 am 05:55 Clear 52 10.9 44 6.9 77 77 W 26 43 29.79 1009 10 16 N/A
6:15 am 06:15 Clear 52 10.9 45 7 77 77 W 22 35 29.82 1010 10 16 N/A
6:35 am 06:35 Mostly Cloudy 51 10.8 45 7.1 78 78 W 17 28 29.85 1011 10 16 N/A
6:55 am 06:55 Clear 51 10.5 45 7.2 80 80 WSW 20 31 29.87 1011 10 16 N/A
7:15 am 07:15 Partly Cloudy 51 10.6 45 7.3 80 80 W 16 26 29.89 1012 10 16 N/A
7:35 am 07:35 Mostly Cloudy 51 10.6 45 7.3 80 80 W 14 22 29.91 1013 10 16 N/A
7:55 am 07:55 Partly Cloudy 51 10.3 46 7.5 83 83 W 13 20 29.93 1013 10 16 N/A
8:15 am 08:15 Mostly Cloudy 51 10.3 46 7.6 84 84 W 9 15 29.95 1014 10 16 N/A
8:35 am 08:35 Mostly Cloudy 51 10.6 46 7.8 83 83 W 13 20 29.96 1014 10 16 N/A
8:55 am 08:55 Sunny 52 11.1 46 7.8 80 80 W 14 22 29.97 1015 10 16 N/A
9:10 am 09:10 Mostly Cloudy 52 11 46 7.9 81 81 W 12 19 29.98 1015 10 16 N/A
9:35 am 09:35 Cloudy 52 11.3 47 8.2 81 81 NW 14 22 30.00 1016 10 16 N/A
9:55 am 09:55 Cloudy 52 11.1 47 8.1 82 82 WNW 14 22 30.02 1016 10 16 N/A
10:15 am 10:15 Cloudy 53 11.4 47 8.2 81 81 WNW 10 17 30.03 1017 10 16 N/A
10:35 am 10:35 Cloudy 53 11.5 47 8.1 80 80 W 12 19 30.04 1017 10 16 N/A
10:55 am 10:55 Cloudy 53 11.7 47 8.2 79 79 W 12 19 30.05 1018 10 16 N/A
11:15 am 11:15 Mostly Cloudy 53 11.7 47 8.1 79 79 WNW 8 13 30.06 1018 10 16 N/A
11:35 am 11:35 Cloudy 54 12 47 8.3 78 78 NW 9 15 30.06 1018 10 16 N/A
11:55 am 11:55 Mostly Cloudy 54 12.2 47 8.2 77 77 WNW 7 11 30.07 1018 10 16 N/A
12:15 pm 12:15 Cloudy 55 12.8 47 8.4 75 75 W 7 11 30.07 1018 10 16 N/A
12:35 pm 12:35 Cloudy 55 12.7 47 8.4 75 75 WNW 9 15 30.08 1019 10 16 N/A
12:55 pm 12:55 Cloudy 55 13 46 8 72 72 WNW 10 17 30.08 1019 10 16 N/A
1:15 pm 13:15 Cloudy 56 13.2 47 8.1 71 71 W 12 19 30.09 1019 10 16 N/A
1:35 pm 13:35 Cloudy 56 13.6 47 8.3 71 71 WNW 8 13 30.09 1019 10 16 N/A
1:55 pm 13:55 Cloudy 57 14.1 46 8 67 67 W 12 19 30.09 1019 10 16 N/A
2:15 pm 14:15 Cloudy 59 15.2 48 8.7 65 65 WSW 8 13 30.09 1019 10 16 N/A
2:35 pm 14:35 Cloudy 59 14.8 47 8.5 66 66 W 9 15 30.09 1019 10 16 N/A
2:55 pm 14:55 Cloudy 57 14 48 8.7 71 71 W 8 13 30.08 1019 10 16 N/A
3:15 pm 15:15 Cloudy 57 13.7 48 8.8 72 72 WSW 7 11 30.08 1019 10 16 N/A
3:35 pm 15:35 Cloudy 56 13.6 48 9.1 74 74 W 8 13 30.08 1019 10 16 N/A
3:55 pm 15:55 Cloudy 57 13.9 48 9 73 73 W 8 13 30.08 1019 10 16 N/A
4:15 pm 16:15 Cloudy 57 14 48 9 72 72 W 9 15 30.08 1019 10 16 N/A
4:35 pm 16:35 Cloudy 57 13.8 49 9.2 74 74 W 9 15 30.08 1019 10 16 N/A
4:55 pm 16:55 Cloudy 57 13.7 49 9.4 75 75 W 8 13 30.08 1019 10 16 N/A
5:15 pm 17:15 Cloudy 56 13.4 49 9.3 76 76 W 9 15 30.09 1019 10 16 N/A
5:35 pm 17:35 Cloudy 56 13.4 49 9.3 76 76 WSW 8 13 30.09 1019 10 16 N/A
5:55 pm 17:55 Cloudy 56 13.4 49 9.6 78 78 WNW 8 13 30.09 1019 10 16 N/A
6:15 pm 18:15 Cloudy 56 13.3 49 9.6 78 78 W 7 11 30.10 1019 10 16 N/A
6:35 pm 18:35 Cloudy 56 13.4 49 9.2 76 76 WSW 8 13 30.11 1020 10 16 N/A
6:55 pm 18:55 Cloudy 56 13.4 48 9 75 75 WSW 8 13 30.12 1020 10 16 N/A
7:15 pm 19:15 Cloudy 56 13.3 48 9 75 75 W 10 17 30.13 1020 10 16 N/A
7:35 pm 19:35 Cloudy 56 13.1 48 8.8 75 75 W 12 19 30.13 1020 10 16 N/A
7:55 pm 19:55 Cloudy 55 12.8 48 8.9 77 77 WSW 7 11 30.13 1020 10 16 N/A
8:15 pm 20:15 Cloudy 55 12.7 48 9 78 78 W 6 9 30.13 1020 10 16 N/A
8:35 pm 20:35 Cloudy 55 12.5 48 8.9 79 79 W 6 9 30.13 1020 10 16 N/A
8:55 pm 20:55 Cloudy 54 12.3 48 9 80 80 W 5 7 30.14 1021 10 16 N/A
9:15 pm 21:15 Cloudy 54 12.1 48 9.1 82 82 W 5 7 30.14 1021 10 16 N/A
9:35 pm 21:35 Cloudy 54 12 48 9 82 82 W 5 7 30.13 1020 10 16 N/A
9:55 pm 21:55 Cloudy 53 11.7 49 9.2 85 85 W 5 7 30.15 1021 10 16 N/A
10:15 pm 22:15 Cloudy 53 11.7 48 9.1 84 84 W 3 6 30.15 1021 10 16 N/A
10:35 pm 22:35 Cloudy 53 11.6 49 9.3 86 86 W 3 6 30.16 1021 10 16 N/A
10:55 pm 22:55 Cloudy 53 11.4 49 9.3 87 87 WNW 3 6 30.15 1021 10 16 N/A
11:15 pm 23:15 Cloudy 52 10.9 48 9 88 88 WNW 5 7 30.15 1021 10 16 N/A
11:35 pm 23:35 Clear 51 10.6 47 8.4 86 86 WNW 3 6 30.15 1021 10 16 N/A
11:55 pm 23:55 Clear 47 8.3 47 8.1 99 99 N N/A 30.16 1021 10 16 N/A

Powered by AerisWeather